Weather History for Garrison, ND

Change the Weather History Date:

Tuesday, February 19, 2013

  Actual Average Record
Temperature  
Mean Temperature -10 °F -  
Max Temperature 0 °F 24 °F 46 °F (2012)
Min Temperature -20 °F 7 °F -20 °F (2013)
Degree Days  
Heating Degree Days 75    
Month to date heating degree days 884  
Moisture  
Dew Point -16 °F    
Average Humidity 65    
Maximum Humidity 77    
Minimum Humidity 53    
Precipitation  
Precipitation 0.00 in - - ()
Month to date precipitation 0.46  
Year to date precipitation 0.96  
Sea Level Pressure  
Sea Level Pressure 30.50 in    
Wind  
Wind Speed 8 mph (NE)    
Max Wind Speed 16 mph    
Max Gust Speed 20 mph    
Averages and records for this station are not official NWS values.
T = Trace of Precipitation, MM = Missing Value Source: NWS Daily Summary

Daily Weather History Graph

Daily Weather History Graph

Search for Another Location

Airport:

Trip Planner

Search our weather history database for the weather conditions in past years. The results will help you decide how hot, cold, wet, or windy it might be!

Date:

Astronomy

Feb. 19, 2013 Rise Set
Actual Time 7:44 AM CST 6:15 PM CST
Civil Twilight 7:12 AM CST 6:47 PM CST
Nautical Twilight 6:36 AM CST 7:23 PM CST
Astronomical Twilight 6:01 AM CST 7:58 PM CST
Moon 12:35 PM CST (2/19) 3:30 AM CST (2/19)
Length of Visible Light 11h 34m
Length of Day
10h 31m
Waxing Gibbous, 67% of the Moon is Illuminated
Feb 19
Waxing Gibbous
Feb 25
Full
Mar 4
Last Quarter
Mar 11
New
Mar 19
First Quarter

Hourly Weather History & Observations

Time (CST) Temp. Windchill Dew Point Humidity Pressure Visibility Wind Dir Wind Speed Gust Speed Precip Events Conditions
12:52 AM -8.0 °F -27.1 °F -14.1 °F 75% 30.43 in - North 11.5 mph - N/A   Unknown
1:52 AM -9.0 °F -20.4 °F -16.1 °F 71% 30.44 in - North 4.6 mph - N/A   Unknown
2:52 AM -11.0 °F -26.2 °F -18.0 °F 71% 30.45 in - North 6.9 mph - N/A   Unknown
3:52 AM -13.0 °F -31.3 °F -18.9 °F 75% 30.47 in - NNW 9.2 mph - N/A   Unknown
4:52 AM -13.0 °F -28.6 °F -20.0 °F 71% 30.47 in - NNE 6.9 mph - N/A   Unknown
5:52 AM -15.0 °F -32.4 °F -20.9 °F 75% 30.49 in - North 8.1 mph - N/A   Unknown
6:52 AM -16.1 °F -33.7 °F -22.0 °F 74% 30.51 in - NNW 8.1 mph - N/A   Unknown
7:52 AM -17.0 °F -29.7 °F -23.1 °F 74% 30.53 in - North 4.6 mph - N/A   Unknown
8:52 AM -16.1 °F -28.6 °F -22.0 °F 74% 30.55 in - WNW 4.6 mph - N/A   Unknown
9:52 AM -13.0 °F -27.0 °F -20.0 °F 71% 30.55 in - NNE 5.8 mph - N/A   Unknown
10:52 AM -8.0 °F -16.9 °F -17.0 °F 65% 30.54 in - Variable 3.5 mph - N/A   Unknown
11:52 AM -8.0 °F - -14.1 °F 75% 30.56 in - Calm Calm - N/A   Unknown
12:52 PM -2.9 °F -16.5 °F -11.0 °F 68% 30.55 in - East 6.9 mph - N/A   Unknown
1:52 PM -0.9 °F -18.3 °F -9.0 °F 69% 30.52 in - ENE 11.5 mph - N/A   Unknown
2:52 PM -0.9 °F -17.4 °F -9.0 °F 69% 30.51 in - East 10.4 mph - N/A   Unknown
3:52 PM -0.9 °F -18.3 °F -11.9 °F 60% 30.51 in - East 11.5 mph - N/A   Unknown
4:52 PM -0.9 °F -18.3 °F -13.0 °F 57% 30.49 in - East 11.5 mph - N/A   Unknown
6:52 PM -6.0 °F -22.6 °F -14.1 °F 68% 30.49 in - East 9.2 mph - N/A   Unknown
7:52 PM -8.0 °F -26.1 °F -15.0 °F 71% 30.50 in - East 10.4 mph - N/A   Unknown
8:52 PM -8.0 °F -28.0 °F -15.0 °F 71% 30.50 in - East 12.7 mph - N/A   Unknown
9:52 PM -9.0 °F -28.4 °F -15.0 °F 75% 30.49 in - East 11.5 mph - N/A   Unknown
10:52 PM -8.0 °F -28.0 °F -14.1 °F 75% 30.48 in - ESE 12.7 mph - N/A   Unknown
11:52 PM -7.1 °F -28.4 °F -13.0 °F 75% 30.47 in - ESE 15.0 mph - N/A   Unknown